Skip Page Navigation
NASA JPL Caltech
NASA Logo - Jet Propulsion Laboratory + View the NASA Portal
+ Near-Earth Object (NEO) Program
Search JPL
JPL Home Earth Solar System Stars & Galaxies Technology
JPL Solar System Dynamics
BODIES ORBITS EPHEMERIDES TOOLS PHYSICAL DATA DISCOVERY FAQ SITE MAP
JPL Small-Body Database Browser
Search: [ help ]  
8241 Agrius (1973 SE1)
Classification: Jupiter Trojan          SPK-ID: 2008241
Ephemeris | Orbit Diagram | Orbital Elements | Physical Parameters | Discovery Circumstances ]

[ show orbit diagram ]
Orbital Elements at Epoch 2457000.5 (2014-Dec-09.0) TDB
Reference: JPL 15 (heliocentric ecliptic J2000)
 Element Value Uncertainty (1-sigma)   Units 
e .04227852254240512 5.4094e-08  
a 5.139123763173342 1.1466e-07 AU
q 4.921849203303807 3.197e-07 AU
i 4.34757192126583 7.3351e-06 deg
node 22.67952606604012 7.8487e-05 deg
peri 263.0766350820832 0.00012125 deg
M 279.3623270438766 9.517e-05 deg
tp 2457953.663772747301
(2017-Jul-19.16377275)
0.0011334 JED
period 4255.318210580524
11.65
0.00014241
3.899e-07
d
yr
n .0846000186554527 2.8313e-09 deg/d
Q 5.356398323042876 1.1951e-07 AU
  Orbit Determination Parameters
   # obs. used (total)      1129  
   data-arc span      15295 days (41.88 yr)  
   first obs. used      1973-09-19  
   last obs. used      2015-08-05  
   planetary ephem.      DE431  
   SB-pert. ephem.      SB431-BIG16  
   condition code      0  
   fit RMS      .528  
   data source      ORB  
   producer      Otto Matic  
   solution date      2015-Sep-02 14:24:19  

Additional Information
 Earth MOID = 3.91037 AU 
 T_jup = 2.993 
[ show covariance matrix ]

Ephemeris | Orbit Diagram | Orbital Elements | Physical Parameters | Discovery Circumstances ]

Physical Parameter Table
Parameter Symbol Value Units Sigma Reference Notes
absolute magnitude H 11.2 mag n/a MPO263423  

8241 Agrius           Discovered 1973 Sept. 19 by C. J. van Houten and I. van Houten-Groeneveld on Palomar Schmidt plates taken by T. Gehrels.
Named after Agrius, a Greek from Aetolia and father of Thersites. Thersites was the ugliest Greek in Troy.
NOTE: some special characters may not display properly (any characters within {} are an attempt to place the proper accent above a character)
Reference: 19981005/MPCPages.arcLast Updated: 2009-11-17

Alternate Designations
 1973 SE1 = 1992 GU3 = 1998 YJ30 
Ephemeris | Orbit Diagram | Orbital Elements | Physical Parameters | Discovery Circumstances ]
ABOUT SSD CREDITS/AWARDS PRIVACY/COPYRIGHT GLOSSARY LINKS
FirstGov 2015-Sep-05 16:19 UT
(server date/time)  
NASA Home Page
Site Manager:   Ryan S. Park
Webmaster  Alan B. Chamberlin